Tracking 28052 objects as of 21-Sep-2023
HD Live streaming from Space Station
objects crossing your sky now

CARTOSAT-1

Track CARTOSAT-1 now!
10-day predictions
CARTOSAT-1 is classified as:


NORAD ID: 28649
Int'l Code: 2005-017A
Perigee: 617.0 km
Apogee: 620.6 km
Inclination: 97.7 °
Period: 96.9 minutes
Semi major axis: 6989 km
RCS: 4.7551 m2 (large)
Launch date: May 5, 2005
Source: India (IND)
Launch site: SRIHARIKOTA (SRI)

Remote sensing and mapping, land use, forest cover, river flow assessments.
Your satellite tracking list
Your tracking list is empty




NASA's NSSDC Master Catalog

Two Line Element Set (TLE):
1 28649U 05017A   23264.24612027  .00002249  00000-0  26570-3 0  9993
2 28649  97.6567 313.3932 0002638 114.2208 245.9284 14.85612853995136
Source of the keplerian elements: AFSPC